Regional Weather Roundup
Issued by NWS

Home | Current Version | Previous Version | Graphics & Text | Print | Product List | Glossary On
Versions: 1 2 3 4 5 6 7 8 9 10 11 12 13 14 15 16 17 18 19 20 21 22 23 24 25 26 27 28 29 30 31 32 33 34 35 36 37 38 39 40 41 42 43 44 45 46 47 48 49 50
901
ASUS44 KLIX 271801
RWRLA
LOUISIANA WEATHER ROUNDUP
NATIONAL WEATHER SERVICE NEW ORLEANS LA
1200 PM CST THU NOV 27 2014

NOTE: "FAIR" INDICATES FEW OR NO CLOUDS BELOW 12,000 FEET WITH NO
      SIGNIFICANT WEATHER AND/OR OBSTRUCTIONS TO VISIBILITY.
      SKY/WX - SKY CONDITION AND SIGNIFICANT WEATHER.
      TMP - AIR TEMPERATURE.    DP   - DEWPOINT TEMPERATURE.
      RH  - RELATIVE HUMIDITY.  PRES - PRESSURE.
      HX  - HEAT INDEX.         WCI  - WIND CHILL INDEX.

*  THESE STATIONS ARE NOT NWS OR FAA STATIONS AND ARE NOT UNDER
   NWS QUALITY CONTROL.

LAZ040-048-061>063-065-066-069-271900-
SOUTHEAST LOUISIANA

CITY           SKY/WX    TMP DP  RH WIND       PRES   REMARKS
N.O. AUDUBON     N/A     58  36  43 MISG        N/A
6HR MIN TEMP:  50; 6HR MAX TEMP:  59;

N.O. INTL ARPT MOSUNNY   57  34  41 N16       30.42F
6HR MIN TEMP:  51; 6HR MAX TEMP:  58;

N.O. LAKEFRONT SUNNY     58  34  40 NW13      30.42F
6HR MIN TEMP:  54; 6HR MAX TEMP:  58;

N.O. DOWNTOWN* FAIR      55  34  44 N8        30.42F
6HR MIN TEMP:  52; 6HR MAX TEMP:  55;

SLIDELL        SUNNY     60  31  33 N9G18     30.40F
6HR MIN TEMP:  40; 6HR MAX TEMP:  60;

BATON ROUGE    SUNNY     58  30  34 NW9       30.44F
6HR MIN TEMP:  42; 6HR MAX TEMP:  58;

BOOTHVILLE     SUNNY     56  37  49 N8G17     30.40F
6HR MIN TEMP:  53; 6HR MAX TEMP:  57;

BELLE CHASSE   SUNNY     60  33  36 N10       30.40F
6HR MIN TEMP:  45; 6HR MAX TEMP:  60;

BOGALUSA*        N/A     59  30  34 N13       30.43F
6HR MIN TEMP:  36; 6HR MAX TEMP:  59;

NEW ROADS*     NOT AVBL
GONZALES*      NOT AVBL
HAMMOND*       NOT AVBL
HOUMA*         SUNNY     61  30  31 N12       30.41F
PORT FOURCHON* CLEAR     59  36  41 N14       30.43F

$$

LAZ041-044-053-054-271900-
SOUTHWEST LOUISIANA

CITY           SKY/WX    TMP DP  RH WIND       PRES   REMARKS
LAKE CHARLES   SUNNY     62  28  27 NE9       30.44F
6HR MIN TEMP:  47; 6HR MAX TEMP:  62;

LAFAYETTE      SUNNY     58  32  37 N9        30.44F
6HR MIN TEMP:  47; 6HR MAX TEMP:  59;

PATTERSON      SUNNY     61  34  36 NE12        N/A
6HR MIN TEMP:  48; 6HR MAX TEMP:  61;

SALT POINT       N/A     65  34  31 VRB5      30.40F
6HR MIN TEMP:  53; 6HR MAX TEMP:  65;

NEW IBERIA     SUNNY     61  32  33 N10G21    30.43F
6HR MIN TEMP:  44; 6HR MAX TEMP:  61;

CHENAULT AIRPK SUNNY     61  28  29 N12       30.45F

$$

LAZ027-028-271900-
CENTRAL LOUISIANA

CITY           SKY/WX    TMP DP  RH WIND       PRES   REMARKS
FORT POLK      SUNNY     57  26  30 NE9       30.46F
6HR MIN TEMP:  42; 6HR MAX TEMP:  57;

ALEXANDRIA INT SUNNY     57  28  33 N9        30.46F
6HR MIN TEMP:  38; 6HR MAX TEMP:  57;

ALEXANDRIA     SUNNY     57  30  35 NE8       30.47F
6HR MIN TEMP:  44; 6HR MAX TEMP:  57;


$$

LAZ001-002-271900-
NORTHWEST LOUISIANA

CITY           SKY/WX    TMP DP  RH WIND       PRES   REMARKS
SHREVEPORT     SUNNY     54  26  34 N8        30.50F
6HR MIN TEMP:  42; 6HR MAX TEMP:  54;

BARKSDALE AFB  SUNNY     54  26  33 NE9       30.51F
6HR MIN TEMP:  36; 6HR MAX TEMP:  54;

DTN SHREVEPORT SUNNY     52  25  35 VRB5      30.51F
6HR MIN TEMP:  39; 6HR MAX TEMP:  52;


$$

LAZ014-016-271900-
NORTHEAST LOUISIANA

CITY           SKY/WX    TMP DP  RH WIND       PRES   REMARKS
MONROE         SUNNY     50  30  46 MISG      30.52F
6HR MIN TEMP:  41; 6HR MAX TEMP:  51;

TALLULAH       SUNNY     50  30  46 N9        30.52F
6HR MIN TEMP:  38; 6HR MAX TEMP:  50;


$$




USA.gov is the U.S. government's official web portal to all federal, state and local government web resources and services.